EW3937 Weather Reports


Display with metric or nautical units.
time (UTC)temp
F
wind
direction
speed
MPH
gust
MPH
rain 1hr
in
rain 24hr
in
rain mn
in
humidity
%
barometer
mb
20260509205003 68 14 1.0 5.0 0.00 0.00 0.00 39 1020.5
20260509204503 68 2 2.0 5.0 0.00 0.00 0.00 37 1020.5
20260509204009 68 311 2.0 5.0 0.00 0.00 0.00 38 1020.5
20260509203503 68 326 1.0 5.0 0.00 0.00 0.00 39 1020.6
20260509203003 69 321 1.0 5.0 0.00 0.00 0.00 39 1020.6
20260509202503 68 272 1.0 5.0 0.00 0.00 0.00 41 1020.6
20260509202003 67 264 1.0 5.0 0.00 0.00 0.00 38 1020.7
20260509201503 68 258 1.0 5.0 0.00 0.00 0.00 40 1020.7
20260509201003 68 234 1.0 3.0 0.00 0.00 0.00 40 1020.7
20260509200717 67 222 1.0 7.0 0.00 0.00 0.00 41 1020.8
20260509200004 67 171 2.0 7.0 0.00 0.00 0.00 40 1020.9
20260509195503 66 205 2.0 7.0 0.00 0.00 0.00 39 1020.9
20260509195003 66 220 2.0 9.0 0.00 0.00 0.00 43 1021.0
20260509194503 66 213 2.0 9.0 0.00 0.00 0.00 42 1020.9
20260509194003 66 231 3.0 5.0 0.00 0.00 0.00 40 1021.0
20260509193503 66 224 3.0 9.0 0.00 0.00 0.00 40 1021.1
20260509193003 66 215 2.0 10.0 0.00 0.00 0.00 38 1021.1
20260509192503 67 221 1.0 10.0 0.00 0.00 0.00 36 1021.2
20260509192003 66 247 2.0 5.0 0.00 0.00 0.00 40 1021.3
20260509191503 66 241 2.0 5.0 0.00 0.00 0.00 40 1021.3
20260509191003 65 238 2.0 7.0 0.00 0.00 0.00 39 1021.4
20260509190503 65 216 2.0 8.0 0.00 0.00 0.00 40 1021.4
20260509190004 65 210 2.0 8.0 0.00 0.00 0.00 41 1021.4
20260509185503 66 223 3.0 7.0 0.00 0.00 0.00 45 1021.5
20260509185003 64 231 3.0 10.0 0.00 0.00 0.00 45 1021.4
20260509184503 64 243 3.0 10.0 0.00 0.00 0.00 46 1021.5
20260509184003 64 245 3.0 7.0 0.00 0.00 0.00 47 1021.5
20260509183503 64 232 3.0 8.0 0.00 0.00 0.00 48 1021.5
20260509183003 63 226 3.0 10.0 0.00 0.00 0.00 44 1021.5
20260509182503 63 225 3.0 10.0 0.00 0.00 0.00 47 1021.5
20260509182217 63 226 3.0 8.0 0.00 0.00 0.00 48 1021.5
20260509181503 63 228 2.0 8.0 0.00 0.00 0.00 47 1021.5
20260509181003 64 229 2.0 6.0 0.00 0.00 0.00 49 1021.5
20260509180718 64 224 2.0 7.0 0.00 0.00 0.00 49 1021.5
20260509180003 64 228 2.0 7.0 0.00 0.00 0.00 48 1021.5
20260509175503 64 214 2.0 7.0 0.00 0.00 0.00 52 1021.5
20260509175003 63 219 2.0 7.0 0.00 0.00 0.00 50 1021.6
20260509174503 62 234 2.0 7.0 0.00 0.00 0.00 51 1021.5
20260509174217 62 237 2.0 7.0 0.00 0.00 0.00 53 1021.6
20260509173718 62 234 2.0 10.0 0.00 0.00 0.00 53 1021.6
20260509173217 62 235 2.0 10.0 0.00 0.00 0.00 50 1021.5
20260509172503 61 247 3.0 7.0 0.00 0.00 0.00 54 1021.5
20260509172003 60 225 4.0 10.0 0.00 0.00 0.00 54 1021.5
20260509171503 60 228 4.0 10.0 0.00 0.00 0.00 53 1021.5
20260509171003 60 224 3.0 9.0 0.00 0.00 0.00 53 1021.5
20260509170718 60 219 3.0 9.0 0.00 0.00 0.00 54 1021.5
20260509170003 60 230 3.0 7.0 0.00 0.00 0.00 54 1021.5
20260509165503 60 238 3.0 7.0 0.00 0.00 0.00 51 1021.6
20260509165003 60 234 3.0 8.0 0.00 0.00 0.00 52 1021.5
20260509164503 60 226 3.0 8.0 0.00 0.00 0.00 53 1021.5
20260509164003 60 229 3.0 8.0 0.00 0.00 0.00 53 1021.5
20260509163503 59 233 3.0 9.0 0.00 0.00 0.00 51 1021.4
20260509163003 59 233 2.0 9.0 0.00 0.00 0.00 49 1021.4
20260509162503 59 231 2.0 8.0 0.00 0.00 0.00 53 1021.4
20260509162003 59 225 3.0 8.0 0.00 0.00 0.00 51 1021.5
20260509161503 59 210 3.0 6.0 0.00 0.00 0.00 50 1021.6
20260509161218 59 217 3.0 6.0 0.00 0.00 0.00 51 1021.5
20260509160503 59 211 4.0 8.0 0.00 0.00 0.00 50 1021.5
20260509160218 59 206 3.0 8.0 0.00 0.00 0.00 52 1021.5
20260509155503 58 207 3.0 10.0 0.00 0.00 0.00 50 1021.5
20260509155003 58 205 3.0 10.0 0.00 0.00 0.00 52 1021.4
20260509154503 58 216 3.0 7.0 0.00 0.00 0.00 53 1021.4
20260509154218 58 221 3.0 8.0 0.00 0.00 0.00 53 1021.4
20260509153503 57 207 3.0 8.0 0.00 0.00 0.00 54 1021.3
20260509153218 57 214 2.0 7.0 0.00 0.00 0.00 53 1021.3
20260509152503 56 244 1.0 6.0 0.00 0.00 0.00 53 1021.3
20260509152003 57 269 0.0 5.0 0.00 0.00 0.00 54 1021.3
20260509151503 57 0 0.0 2.0 0.00 0.00 0.00 58 1021.3
20260509151003 57 0 0.0 2.0 0.00 0.00 0.00 60 1021.3
20260509150503 57 0 0.0 2.0 0.00 0.00 0.00 59 1021.4
20260509150003 56 0 0.0 1.0 0.00 0.00 0.00 59 1021.3
20260509145503 56 0 0.0 1.0 0.00 0.00 0.00 59 1021.3
20260509145003 56 0 0.0 2.0 0.00 0.00 0.00 59 1021.3
20260509144503 56 0 0.0 2.0 0.00 0.00 0.00 60 1021.3
20260509144003 55 0 0.0 2.0 0.00 0.00 0.00 62 1021.3
20260509143503 55 0 0.0 2.0 0.00 0.00 0.00 60 1021.3
20260509143003 55 0 0.0 2.0 0.00 0.00 0.00 62 1021.2
20260509142717 55 0 0.0 2.0 0.00 0.00 0.00 63 1021.1
20260509142003 55 89 0.0 1.0 0.00 0.00 0.00 63 1021.1
20260509141503 55 210 1.0 1.0 0.00 0.00 0.00 61 1021.0
20260509141003 53 224 1.0 4.0 0.00 0.00 0.00 64 1021.0
20260509140503 52 224 2.0 4.0 0.00 0.00 0.00 65 1020.9
20260509140003 51 227 2.0 5.0 0.00 0.00 0.00 68 1020.9
20260509135503 51 234 2.0 5.0 0.00 0.00 0.00 69 1020.9
20260509135003 50 239 1.0 4.0 0.00 0.00 0.00 69 1020.9
20260509134503 50 237 0.0 3.0 0.00 0.00 0.00 70 1020.8
20260509134003 49 0 0.0 2.0 0.00 0.00 0.00 71 1020.7
20260509133503 49 166 0.0 1.0 0.00 0.00 0.00 72 1020.7
20260509133004 48 163 1.0 4.0 0.00 0.00 0.00 74 1020.8
20260509132503 47 155 2.0 4.0 0.00 0.00 0.00 76 1020.7
20260509132003 46 152 2.0 4.0 0.00 0.00 0.00 77 1020.6
20260509131503 47 161 2.0 4.0 0.00 0.00 0.00 75 1020.6
20260509131003 47 200 3.0 5.0 0.00 0.00 0.00 74 1020.5
20260509130503 47 210 3.0 5.0 0.00 0.00 0.00 75 1020.4
20260509130003 46 207 3.0 6.0 0.00 0.00 0.00 76 1020.4
20260509125503 44 189 2.0 6.0 0.00 0.00 0.00 80 1020.3
20260509125003 43 171 2.0 4.0 0.00 0.00 0.00 80 1020.3
20260509124503 43 160 1.0 4.0 0.00 0.00 0.00 82 1020.3
20260509124003 42 149 0.0 4.0 0.00 0.00 0.00 80 1020.3
20260509123503 43 0 3.0 3.0 0.00 0.00 0.00 79 1020.2
20260509123003 43 0 1.0 1.0 0.00 0.00 0.00 78 1020.2
20260509122503 44 0 1.0 1.0 0.00 0.00 0.00 77 1020.2
20260509122003 44 0 0.0 1.0 0.00 0.00 0.00 77 1020.2
20260509121718 44 141 0.0 1.0 0.00 0.00 0.00 76 1020.1
20260509121003 44 142 1.0 2.0 0.00 0.00 0.00 77 1020.1
20260509120503 44 145 2.0 4.0 0.00 0.00 0.00 75 1020.0
20260509120003 45 145 1.0 4.0 0.00 0.00 0.00 73 1019.9
20260509115718 46 148 0.0 4.0 0.00 0.00 0.00 71 1019.9
20260509115217 47 0 0.0 3.0 0.00 0.00 0.00 69 1019.8
20260509114503 48 233 1.0 1.0 0.00 0.00 0.00 67 1019.8
20260509114003 48 228 1.0 3.0 0.00 0.00 0.00 66 1019.9
20260509113503 49 223 1.0 4.0 0.00 0.00 0.00 66 1019.9
20260509113003 49 225 1.0 4.0 0.00 0.00 0.00 67 1019.9
20260509112503 48 233 0.0 4.0 0.00 0.00 0.00 68 1019.9
20260509112216 48 229 0.0 4.0 0.00 0.00 0.00 68 1019.9
20260509111503 46 0 0.0 2.0 0.00 0.00 0.00 68 1019.8
20260509111003 47 226 0.0 3.0 0.00 0.00 0.00 67 1019.8
20260509110503 47 225 0.0 3.0 0.00 0.00 0.00 67 1019.8
20260509110003 47 0 6.0 6.0 0.00 0.00 0.00 68 1019.7
20260509105503 46 0 6.0 6.0 0.00 0.00 0.00 70 1019.8
20260509105003 46 0 1.0 1.0 0.00 0.00 0.00 69 1019.7
20260509104503 46 0 1.0 1.0 0.00 0.00 0.00 69 1019.6
20260509104003 45 0 0.0 1.0 0.00 0.00 0.00 70 1019.6
20260509103503 45 201 0.0 1.0 0.00 0.00 0.00 70 1019.6
20260509103003 45 0 1.0 1.0 0.00 0.00 0.00 71 1019.5
20260509102503 44 152 2.0 3.0 0.00 0.00 0.00 72 1019.5
20260509102218 44 149 2.0 4.0 0.00 0.00 0.00 72 1019.5
20260509101503 43 147 3.0 4.0 0.00 0.00 0.00 72 1019.5
20260509101003 44 146 3.0 5.0 0.00 0.00 0.00 69 1019.4
20260509100503 46 168 4.0 6.0 0.00 0.00 0.00 65 1019.4
20260509100218 48 190 4.0 6.0 0.00 0.00 0.00 61 1019.4
20260509095503 50 215 3.0 8.0 0.00 0.00 0.00 59 1019.3
20260509095003 49 212 2.0 8.0 0.00 0.00 0.00 61 1019.3
20260509094503 48 188 2.0 5.0 0.00 0.00 0.00 62 1019.2
20260509094218 48 188 2.0 5.0 0.00 0.00 0.00 61 1019.2
20260509093503 49 206 4.0 4.0 0.00 0.00 0.00 59 1019.1
20260509093218 49 209 4.0 6.0 0.00 0.00 0.00 59 1019.0
20260509092503 48 209 3.0 6.0 0.00 0.00 0.00 59 1019.0
20260509092003 49 208 3.0 5.0 0.00 0.00 0.00 58 1019.0
20260509091503 49 210 3.0 5.0 0.00 0.00 0.00 57 1019.0
20260509091003 49 215 2.0 6.0 0.00 0.00 0.00 57 1019.0
20260509090503 49 222 1.0 6.0 0.00 0.00 0.00 57 1019.0
20260509090003 49 228 2.0 5.0 0.00 0.00 0.00 56 1019.0
20260509085503 50 220 3.0 7.0 0.00 0.00 0.00 55 1018.9
20260509085003 50 215 4.0 7.0 0.00 0.00 0.00 55 1018.8
20260509084503 50 212 4.0 7.0 0.00 0.00 0.00 54 1018.8
20260509084003 50 212 4.0 7.0 0.00 0.00 0.00 53 1018.7
20260509083717 50 211 4.0 7.0 0.00 0.00 0.00 52 1018.7
20260509083003 51 211 5.0 8.0 0.00 0.00 0.00 51 1018.7
20260509082503 51 211 4.0 8.0 0.00 0.00 0.00 51 1018.7
20260509082003 51 211 4.0 8.0 0.00 0.00 0.00 51 1018.6
20260509081716 51 210 5.0 8.0 0.00 0.00 0.00 51 1018.5
20260509081003 51 209 5.0 8.0 0.00 0.00 0.00 50 1018.5
20260509080503 52 211 5.0 9.0 0.00 0.00 0.00 50 1018.5
20260509080004 52 213 5.0 9.0 0.00 0.00 0.00 49 1018.5
20260509075503 52 208 4.0 9.0 0.00 0.00 0.00 49 1018.5
20260509075003 52 203 2.0 8.0 0.00 0.00 0.00 49 1018.4
20260509074503 52 205 3.0 6.0 0.00 0.00 0.00 48 1018.4
20260509074217 53 210 3.0 7.0 0.00 0.00 0.00 48 1018.4
20260509073503 53 213 3.0 7.0 0.00 0.00 0.00 48 1018.3
20260509073003 53 210 5.0 7.0 0.00 0.00 0.00 47 1018.3
20260509072503 53 210 6.0 9.0 0.00 0.00 0.00 48 1018.1
20260509072003 53 210 6.0 10.0 0.00 0.00 0.00 48 1018.1
20260509071503 53 210 6.0 10.0 0.00 0.00 0.00 47 1018.1
20260509071003 54 209 6.0 10.0 0.00 0.00 0.00 46 1018.0
20260509070503 54 209 6.0 10.0 0.00 0.00 0.00 46 1018.0
20260509070004 54 211 6.0 10.0 0.00 0.00 0.00 46 1018.0
20260509065503 55 214 6.0 12.0 0.00 0.00 0.00 45 1017.9
20260509065003 55 216 5.0 12.0 0.00 0.00 0.00 45 1017.9
20260509064503 55 214 5.0 9.0 0.00 0.00 0.00 45 1017.8
20260509064003 55 213 5.0 9.0 0.00 0.00 0.00 46 1017.7
20260509063503 55 209 6.0 8.0 0.00 0.00 0.00 46 1017.7
20260509063003 55 213 6.0 14.0 0.00 0.00 0.00 46 1017.7
20260509062503 56 213 6.0 14.0 0.00 0.00 0.00 45 1017.7
20260509062003 56 212 6.0 12.0 0.00 0.00 0.00 45 1017.6
20260509061504 56 216 6.0 12.0 0.00 0.00 0.00 45 1017.7
20260509061003 57 219 6.0 12.0 0.00 0.00 0.00 44 1017.7
20260509060503 57 224 5.0 11.0 0.00 0.00 0.00 43 1017.7
20260509060216 57 223 5.0 11.0 0.00 0.00 0.00 43 1017.7
20260509055717 57 214 6.0 10.0 0.00 0.00 0.00 43 1017.6
20260509055003 57 215 7.0 12.0 0.00 0.00 0.00 41 1017.5
20260509054503 58 219 8.0 14.0 0.00 0.00 0.00 40 1017.5
20260509054218 58 220 8.0 14.0 0.00 0.00 0.00 39 1017.4
20260509053503 58 222 8.0 15.0 0.00 0.00 0.00 39 1017.4
20260509053003 58 219 8.0 15.0 0.00 0.00 0.00 39 1017.3
20260509052503 58 217 9.0 15.0 0.00 0.00 0.00 39 1017.2
20260509052003 59 221 8.0 18.0 0.00 0.00 0.00 39 1017.1
20260509051717 58 222 7.0 18.0 0.00 0.00 0.00 39 1017.1
20260509051003 59 223 6.0 18.0 0.00 0.00 0.00 39 1017.1
20260509050503 58 220 6.0 10.0 0.00 0.00 0.00 40 1017.0
20260509050003 59 221 7.0 11.0 0.00 0.00 0.00 39 1017.0
20260509045717 59 220 7.0 11.0 0.00 0.00 0.00 39 1017.0
20260509045003 60 215 8.0 13.0 0.00 0.00 0.00 38 1016.9
20260509044503 60 214 8.0 14.0 0.00 0.00 0.00 38 1016.8
20260509044218 60 217 8.0 14.0 0.00 0.00 0.00 38 1016.8
20260509043503 60 219 8.0 16.0 0.00 0.00 0.00 37 1016.6
20260509043003 60 219 8.0 16.0 0.00 0.00 0.00 37 1016.6
20260509042503 60 218 8.0 16.0 0.00 0.00 0.00 37 1016.5
20260509042003 60 219 7.0 14.0 0.00 0.00 0.00 37 1016.6
20260509041503 60 216 7.0 14.0 0.00 0.00 0.00 36 1016.5
20260509041003 60 208 6.0 14.0 0.00 0.00 0.00 36 1016.5
20260509040503 60 209 5.0 13.0 0.00 0.00 0.00 36 1016.5
20260509040003 60 213 6.0 10.0 0.00 0.00 0.00 35 1016.5
20260509035503 60 212 6.0 13.0 0.00 0.00 0.00 35 1016.4
20260509035003 60 212 5.0 13.0 0.00 0.00 0.00 34 1016.5
20260509034503 60 215 4.0 9.0 0.00 0.00 0.00 34 1016.3
20260509034218 60 215 4.0 9.0 0.00 0.00 0.00 34 1016.3
20260509033503 60 218 4.0 9.0 0.00 0.00 0.00 33 1016.2
20260509033003 61 216 5.0 9.0 0.00 0.00 0.00 32 1016.2
20260509032503 61 217 6.0 9.0 0.00 0.00 0.00 32 1016.1
20260509032003 61 218 6.0 10.0 0.00 0.00 0.00 32 1016.1
20260509031503 61 216 6.0 12.0 0.00 0.00 0.00 31 1016.0
20260509031003 61 214 6.0 12.0 0.00 0.00 0.00 31 1015.9
20260509030503 61 211 7.0 10.0 0.00 0.00 0.00 31 1015.9
20260509030003 61 210 7.0 10.0 0.00 0.00 0.00 31 1015.8
20260509025503 62 211 6.0 12.0 0.00 0.00 0.00 31 1015.7
20260509025003 62 210 5.0 12.0 0.00 0.00 0.00 30 1015.7
20260509024503 62 213 5.0 11.0 0.00 0.00 0.00 30 1015.6
20260509024003 63 215 5.0 11.0 0.00 0.00 0.00 30 1015.7
20260509023718 63 215 5.0 9.0 0.00 0.00 0.00 29 1015.7
20260509023003 63 221 7.0 10.0 0.00 0.00 0.00 28 1015.6
20260509022718 64 223 7.0 10.0 0.00 0.00 0.00 28 1015.6
20260509022003 64 225 8.0 13.0 0.00 0.00 0.00 27 1015.6
20260509021503 64 222 8.0 13.0 0.00 0.00 0.00 26 1015.6
20260509021003 65 219 9.0 15.0 0.00 0.00 0.00 24 1015.5
20260509020503 65 220 9.0 19.0 0.00 0.00 0.00 23 1015.6
20260509020003 65 220 10.0 19.0 0.00 0.00 0.00 22 1015.5
20260509015718 65 220 10.0 19.0 0.00 0.00 0.00 21 1015.5
20260509015003 65 220 9.0 17.0 0.00 0.00 0.00 19 1015.4
20260509014503 66 222 8.0 17.0 0.00 0.00 0.00 19 1015.4
20260509014003 66 222 8.0 17.0 0.00 0.00 0.00 20 1015.4
20260509013503 65 221 9.0 14.0 0.00 0.00 0.00 19 1015.5
20260509013003 65 222 11.0 19.0 0.00 0.00 0.00 20 1015.4
20260509012503 66 224 11.0 20.0 0.00 0.00 0.00 20 1015.4
20260509012003 66 221 11.0 20.0 0.00 0.00 0.00 21 1015.4
20260509011503 67 216 11.0 21.0 0.00 0.00 0.00 25 1015.4
20260509011003 67 220 11.0 21.0 0.00 0.00 0.00 26 1015.4
20260509010503 67 220 11.0 19.0 0.00 0.00 0.00 26 1015.5
20260509010003 67 217 12.0 19.0 0.00 0.00 0.00 25 1015.3
20260509005503 67 219 12.0 19.0 0.00 0.00 0.00 25 1015.3
20260509005003 67 218 12.0 20.0 0.00 0.00 0.00 25 1015.3
20260509004503 67 219 12.0 22.0 0.00 0.00 0.00 26 1015.3
20260509004003 67 221 13.0 22.0 0.00 0.00 0.00 26 1015.4
20260509003503 67 222 14.0 21.0 0.00 0.00 0.00 25 1015.4
20260509003003 67 222 14.0 25.0 0.00 0.00 0.00 26 1015.4
20260509002503 67 221 14.0 25.0 0.00 0.00 0.00 24 1015.4
20260509002003 68 219 12.0 24.0 0.00 0.00 0.00 24 1015.4
20260509001503 68 219 10.0 22.0 0.00 0.00 0.00 24 1015.3
20260509001003 67 223 10.0 20.0 0.00 0.00 0.00 27 1015.3
20260509000503 66 218 10.0 16.0 0.00 0.00 0.00 28 1015.4
20260509000004 66 212 11.0 16.0 0.00 0.00 0.00 31 1015.4
20260508235503 66 211 13.0 22.0 0.00 0.00 0.00 31 1015.4
20260508235003 66 211 13.0 22.0 0.00 0.00 0.00 31 1015.4
20260508234503 66 210 12.0 21.0 0.00 0.00 0.00 29 1015.3
20260508234218 66 212 11.0 21.0 0.00 0.00 0.00 29 1015.4
20260508233503 66 214 10.0 19.0 0.00 0.00 0.00 31 1015.6
20260508233218 66 214 10.0 19.0 0.00 0.00 0.00 32 1015.6
20260508232503 66 221 10.0 17.0 0.00 0.00 0.00 34 1015.7
20260508232003 66 219 9.0 16.0 0.00 0.00 0.00 34 1015.7
20260508231503 66 216 9.0 17.0 0.00 0.00 0.00 37 1015.8
20260508231003 66 223 10.0 17.0 0.00 0.00 0.00 38 1015.9
20260508230503 65 225 10.0 21.0 0.00 0.00 0.00 38 1015.9
20260508230218 65 224 10.0 21.0 0.00 0.00 0.00 38 1016.0
20260508225503 65 220 11.0 19.0 0.00 0.00 0.00 38 1015.9
20260508225003 66 220 11.0 18.0 0.00 0.00 0.00 37 1016.0
20260508224503 66 221 11.0 21.0 0.00 0.00 0.00 36 1016.0
20260508224003 67 223 10.0 21.0 0.00 0.00 0.00 35 1016.0
20260508223503 67 228 9.0 20.0 0.00 0.00 0.00 33 1016.0
20260508223218 67 227 9.0 21.0 0.00 0.00 0.00 32 1015.9
20260508222503 67 224 7.0 21.0 0.00 0.00 0.00 32 1016.0
20260508222003 66 227 7.0 17.0 0.00 0.00 0.00 31 1015.9
20260508221717 66 228 7.0 17.0 0.00 0.00 0.00 30 1016.0
20260508221003 66 227 6.0 17.0 0.00 0.00 0.00 31 1015.9
20260508220503 67 227 6.0 13.0 0.00 0.00 0.00 31 1016.0
20260508220004 67 225 5.0 13.0 0.00 0.00 0.00 31 1016.0
20260508215503 67 224 4.0 13.0 0.00 0.00 0.00 33 1016.0
20260508215003 66 232 4.0 13.0 0.00 0.00 0.00 34 1015.8
20260508214503 66 243 4.0 11.0 0.00 0.00 0.00 34 1015.9
20260508214003 66 240 3.0 10.0 0.00 0.00 0.00 34 1015.9
20260508213503 66 234 3.0 9.0 0.00 0.00 0.00 35 1015.9
20260508213003 66 237 4.0 9.0 0.00 0.00 0.00 35 1015.8
20260508212503 65 231 5.0 10.0 0.00 0.00 0.00 34 1015.9
20260508212003 65 228 6.0 10.0 0.00 0.00 0.00 31 1016.0
20260508211718 66 225 6.0 13.0 0.00 0.00 0.00 30 1016.0
20260508211217 66 227 5.0 13.0 0.00 0.00 0.00 29 1016.0
20260508210503 66 229 4.0 13.0 0.00 0.00 0.00 28 1015.8
20260508210003 66 230 4.0 13.0 0.00 0.00 0.00 27 1015.7
20260508205503 66 230 4.0 9.0 0.00 0.00 0.00 27 1015.8